Starlink 32877

operational
NORAD ID: 62960 Int'l Des: 2025-029 Owner: SPXS Country: US Constellation: starlink
LEOCIRCULAR

About Starlink 32877

Description loading...

Live Position

Loading 3D Globe...

Upcoming Passes

Altitude History

Altitude vs Time

uPlot chart will show altitude changes over time

Two-Line Element Set

1 62960U 25029N 25352.11049423 .00026809 00000-0 91392-3 0 9994
2 62960 53.1604 251.6559 0001749 68.8756 291.2432 15.30203239 48809
Epoch: Dec 18, 2025 • Age: 15 hours

Current Status

Altitude 484.0 km
Velocity 7.62 km/s
Sub-Earth Point -26.94°S, 98.03°E
Launch Date Feb 11, 2025
Age 0.8 years
Type internet

Technical Details

Classification Payload
Mass 730.00 kg
Dry Mass 700.00 kg
Total Mass 730.00 kg
Length 0.30 m
Diameter 4.10 m
Span 29.00 m
Shape Box + pan
Manufacturer SPXS
Bus Type Starlink V2M
Phase Status In Orbit
Owner/State SPXS/US

Large Constellations

Loading constellations...